Theta_e
332 330 330 331 333 334 333 333 334 334 334 334 333 333 332 330 328 326 326 325 323 323 324 322 322 322 323 323 323 322 321 321 319 316 316 317 313 313 316 314 313 309 306 309 306 300 300 298 300 304 304 305 307 304 305 306 307 305 305 307 304 303 303
331 330 330 332 332 333 332 332 333 332 332 332 332 330 328 327 328 325 323 322 322 322 325 320 319 320 322 322 321 320 318 319 318 319 318 317 316 314 311 309 309 308 308 308 307 305 302 299 299 300 302 304 306 303 305 305 306 308 306 306 306 304 307
331 329 330 330 332 333 331 331 331 330 329 328 328 327 324 324 324 323 322 321 321 321 322 318 318 318 319 320 320 319 317 316 315 318 318 318 318 315 315 310 308 307 309 309 307 304 303 303 299 299 301 302 301 301 304 303 303 301 301 302 302 302 302
330 330 329 330 331 331 329 329 329 328 327 326 326 323 322 321 320 322 320 319 320 324 320 317 317 317 318 319 317 316 315 314 313 314 314 315 315 313 311 312 312 310 309 307 306 305 304 301 301 300 301 302 298 298 299 301 302 299 300 301 302 302 303
331 331 330 329 330 330 329 327 327 325 324 323 322 320 318 319 320 318 320 319 319 317 316 316 315 315 315 315 315 313 312 312 311 312 310 310 310 310 309 310 312 312 310 310 308 306 304 303 303 301 302 300 298 298 299 300 299 300 300 300 301 301 302
331 331 331 330 331 331 329 327 325 324 322 321 321 320 317 318 318 317 316 316 315 316 315 315 314 314 314 313 312 311 310 310 309 309 308 308 309 309 308 305 307 306 308 306 308 306 305 304 303 301 301 298 296 296 296 298 299 299 299 300 301 301 301
331 331 331 331 331 331 329 327 326 324 322 323 320 320 318 318 318 317 316 315 315 315 315 314 313 313 313 311 310 309 308 307 307 307 307 306 306 305 304 304 304 304 303 305 306 304 303 303 302 302 299 296 297 295 297 298 297 298 299 300 301 301 301
332 332 331 331 331 329 328 327 326 324 323 321 320 319 318 318 317 315 315 314 314 314 314 314 313 313 313 311 309 308 307 306 306 307 305 305 304 303 302 303 303 302 302 303 304 304 305 305 304 302 297 294 295 297 299 296 296 297 297 299 300 300 301
332 332 331 330 330 329 327 327 325 323 322 319 318 317 317 317 315 315 315 314 313 313 313 312 312 311 310 309 308 307 306 307 305 305 304 304 303 302 302 302 302 301 301 301 303 304 304 306 305 302 299 298 294 293 296 297 297 297 298 298 299 300 300
332 331 331 330 329 328 326 325 323 322 320 319 318 318 316 316 315 315 313 313 313 312 312 312 311 310 309 309 307 306 305 305 305 303 303 303 302 302 301 301 301 300 300 301 301 302 303 304 305 301 300 298 298 295 293 294 296 296 297 298 297 297 300
332 332 331 330 329 327 325 324 323 321 319 319 318 317 316 314 315 316 313 313 313 312 312 311 310 309 308 307 306 306 305 305 304 303 303 302 301 301 302 301 301 300 300 299 299 300 302 303 302 301 300 300 299 297 295 294 295 296 299 298 299 296 298
332 332 331 330 328 327 325 324 323 322 320 319 318 316 314 314 314 313 313 312 312 311 310 309 309 308 307 305 305 304 304 303 302 302 302 302 301 301 299 298 298 298 299 299 299 300 301 301 300 300 299 300 301 299 297 297 295 297 299 299 299 300 299
332 331 330 329 327 326 325 323 322 321 319 318 317 316 314 313 312 311 312 312 311 310 309 308 308 307 306 305 304 303 302 302 302 301 302 302 300 299 299 298 298 298 298 299 299 299 300 301 300 300 300 300 299 299 299 297 296 296 299 300 299 299 300
330 331 329 329 328 326 325 323 322 321 319 317 315 314 313 313 312 312 311 311 310 309 308 307 307 306 305 303 303 303 302 302 301 301 302 300 300 299 299 298 297 298 298 299 299 299 299 299 300 300 300 300 299 300 300 299 296 296 297 298 299 299 300
331 330 329 328 327 326 325 324 322 320 319 317 315 314 313 312 311 311 310 310 309 309 308 307 306 305 304 303 302 302 302 301 301 300 300 299 299 300 299 298 297 297 298 298 298 298 298 299 299 300 300 300 299 299 300 299 297 296 296 298 299 298 300
330 329 329 328 327 326 325 323 322 321 319 316 315 314 313 311 310 310 310 309 308 308 307 306 306 305 304 303 302 302 302 301 301 300 299 299 299 298 298 299 297 298 298 298 298 298 299 299 300 299 300 300 300 300 300 299 297 295 295 296 297 298 299
330 329 328 328 327 326 324 323 322 321 317 315 314 313 311 310 310 309 308 308 308 307 306 306 305 304 303 303 302 301 301 301 301 300 300 299 298 298 298 297 297 298 299 297 297 298 298 299 299 299 299 299 299 299 299 299 299 296 296 295 297 297 297
328 328 327 327 326 325 323 322 321 319 317 315 314 312 310 310 309 308 307 307 307 306 306 305 304 303 303 303 302 302 301 300 300 300 300 299 301 298 299 298 297 298 298 297 297 297 298 298 297 299 298 298 298 298 298 298 298 298 296 295 296 297 296
328 327 327 326 325 324 323 322 320 319 317 314 312 312 309 308 308 307 307 306 306 306 305 305 304 303 303 302 302 302 301 301 300 300 299 300 299 299 299 298 297 297 298 298 297 297 297 297 296 297 296 296 295 296 297 297 297 297 296 295 296 295 295
327 327 326 325 325 324 322 321 320 317 316 314 312 310 309 308 308 307 306 306 306 305 305 304 303 303 302 302 302 301 301 300 300 299 299 300 299 299 298 298 298 297 298 297 297 297 296 296 297 296 296 295 295 297 296 296 296 295 295 294 294 295 295
327 327 326 325 324 323 322 320 318 316 316 314 313 311 309 308 307 307 306 306 305 305 304 303 302 302 302 302 302 301 301 300 300 300 300 299 299 298 298 298 298 297 298 297 297 296 297 296 296 296 294 294 295 296 295 295 295 294 294 294 295 295 293
327 326 325 324 323 322 320 319 317 316 315 314 313 311 309 308 307 306 305 305 305 305 304 303 303 302 302 301 301 301 301 301 300 300 299 298 298 298 298 298 298 297 300 301 301 299 298 298 296 295 293 294 295 295 294 294 294 293 293 294 293 292 294
326 325 323 322 322 320 318 317 317 316 315 314 312 310 309 308 307 305 304 304 304 304 304 303 305 305 304 302 301 301 301 301 300 300 299 297 297 297 297 297 300 303 304 304 302 300 298 299 298 296 294 294 295 294 294 293 293 293 294 293 294 293 294
325 323 323 322 321 319 318 317 316 315 314 313 311 310 308 307 306 305 305 304 303 303 303 304 302 297 298 301 302 301 301 300 300 299 299 298 297 297 296 296 299 306 306 305 301 298 297 296 296 296 296 296 297 295 293 292 292 293 295 294 292 292 294
323 322 322 321 320 319 318 317 315 314 313 312 311 310 308 307 306 305 304 304 303 303 303 303 297 296 296 297 301 302 301 300 300 298 298 297 297 296 295 298 301 304 301 300 299 298 298 296 294 294 293 294 294 294 295 294 294 292 293 293 292 293 293
322 321 320 320 319 318 317 316 315 314 313 312 310 308 307 307 305 305 304 303 303 303 303 299 296 296 296 296 297 301 301 300 299 298 297 296 296 295 297 299 298 297 301 304 300 297 297 298 296 295 295 296 295 293 291 292 293 296 294 294 294 293 293
321 320 320 319 318 317 316 315 315 314 313 311 309 308 307 305 304 304 303 303 302 302 302 299 295 296 295 295 295 298 300 300 299 298 297 296 295 296 297 298 297 296 299 300 295 296 295 295 296 297 297 296 296 299 294 292 292 293 295 296 295 295 295
321 320 319 318 318 317 316 315 314 313 312 310 309 307 306 304 304 303 303 303 302 301 302 297 295 295 295 295 294 297 300 300 299 297 297 296 296 296 297 297 296 296 297 298 295 295 294 294 296 296 296 295 295 296 297 296 295 295 297 295 295 297 297
320 320 319 318 317 316 316 315 313 313 311 310 309 308 306 305 304 303 303 303 302 301 302 295 294 294 294 294 295 301 300 299 298 297 296 296 296 297 297 297 297 296 298 298 297 294 295 296 297 296 296 296 296 297 297 299 295 295 297 297 296 296 297
320 319 318 317 317 316 315 314 313 312 310 309 308 306 305 304 304 303 303 303 303 302 302 297 294 294 294 293 297 301 300 299 298 297 296 296 297 297 298 298 297 295 297 297 297 292 293 296 297 296 296 296 297 296 297 297 294 293 293 292 292 291 291
319 318 318 317 317 316 315 314 313 312 310 308 307 306 305 304 304 304 303 303 303 303 302 299 294 294 294 294 299 300 300 299 297 297 297 297 297 298 299 301 299 295 295 296 295 293 292 296 297 296 296 296 295 294 295 294 293 294 292 292 292 291 291
319 318 318 317 317 316 315 314 313 312 311 310 308 307 305 304 303 304 304 304 305 304 303 300 294 294 294 294 299 301 300 299 298 297 297 298 299 298 298 303 302 298 296 296 294 293 292 296 297 296 296 297 296 295 296 293 292 292 293 293 294 295 295
318 318 318 317 316 315 315 313 312 311 310 310 307 306 305 304 303 303 303 303 304 304 303 301 297 293 294 294 297 301 301 300 298 298 298 298 297 297 297 297 300 295 293 293 293 292 292 292 296 296 296 295 295 295 296 292 292 292 294 296 295 295 296
318 317 317 316 315 314 313 312 311 311 309 308 307 305 305 304 304 303 303 303 303 303 303 302 298 293 294 294 295 298 301 301 301 300 299 299 299 298 297 297 297 297 293 293 292 292 292 291 293 296 296 295 296 297 294 293 294 296 293 295 296 297 296
318 317 317 316 315 314 313 313 311 311 309 307 306 304 304 303 303 302 301 302 303 303 304 303 300 294 293 294 295 296 301 302 301 301 299 300 299 299 299 299 298 297 294 293 292 292 291 291 291 296 295 292 293 291 295 295 294 296 295 294 293 294 295
316 317 316 315 314 312 311 311 310 309 308 307 305 304 303 303 302 301 300 301 302 302 302 302 298 297 293 293 294 295 297 299 295 302 301 300 299 299 300 300 300 298 293 293 292 291 291 290 291 293 291 291 291 290 292 294 293 294 293 293 293 293 293
316 316 315 314 313 311 310 310 309 308 307 306 305 304 303 303 301 300 299 299 300 301 301 301 297 296 295 292 293 294 294 295 295 301 302 301 301 300 300 300 299 295 293 293 292 291 290 290 291 290 290 291 290 290 294 293 291 292 291 291 292 292 292
Wind_Speed
8 7 7 6 5 6 7 6 6 6 6 5 6 6 6 6 6 6 6 6 6 6 5 6 7 6 6 4 6 5 4 5 7 9 8 6 10 6 1 2 5 5 7 4 9 9 7 8 4 2 2 2 3 3 1 1 3 5 6 5 4 4 3
7 7 6 7 7 6 8 6 6 6 5 5 5 6 6 6 6 7 6 6 6 6 5 5 5 6 8 8 7 6 5 4 5 3 7 9 6 6 5 3 5 5 3 3 5 3 5 5 2 5 5 1 4 4 3 1 2 4 5 4 3 3 3
6 6 7 8 8 7 8 7 6 6 5 5 5 6 5 6 6 6 6 7 6 6 5 6 5 5 5 6 7 7 7 7 5 5 7 7 7 5 5 7 5 4 4 3 2 4 4 2 8 9 5 6 5 3 2 5 5 5 5 4 4 3 3
10 9 8 8 8 7 8 7 7 6 5 6 5 5 5 6 6 6 6 6 6 6 6 6 6 6 5 5 5 4 5 6 5 5 4 3 5 6 6 7 8 10 9 7 8 6 5 5 5 5 3 3 6 6 2 2 3 4 4 4 4 3 3
12 10 11 11 9 9 8 8 6 6 5 5 5 5 5 5 6 5 5 6 6 6 6 5 5 5 4 4 4 4 4 3 3 4 4 6 7 6 6 6 6 7 5 6 7 8 8 7 10 9 7 4 4 3 1 2 3 5 5 4 2 2 2
11 11 11 10 9 9 8 7 8 7 6 6 5 6 5 6 6 6 6 6 5 5 5 5 5 5 5 4 4 4 5 5 5 6 6 7 8 8 7 4 4 5 6 3 6 6 4 7 10 9 2 2 6 5 1 0 3 2 3 3 2 2 2
10 11 10 10 9 8 8 9 9 8 8 8 7 7 7 6 5 6 6 5 5 6 6 6 6 5 5 5 4 5 5 4 4 5 5 6 4 4 5 5 5 5 4 4 6 7 8 9 8 12 8 4 4 5 1 1 1 3 2 3 2 1 2
10 9 9 9 10 9 8 9 8 7 8 6 7 6 7 6 6 6 6 6 6 6 6 6 5 5 5 5 4 4 4 3 4 6 6 7 6 7 5 5 5 3 4 5 6 7 8 10 11 11 12 11 4 2 1 1 1 3 5 1 2 2 2
9 9 8 8 8 9 9 10 9 9 7 7 6 7 6 7 7 7 6 6 6 6 6 6 6 5 5 6 5 5 5 3 5 6 6 5 6 6 6 5 5 4 2 4 4 6 6 7 10 9 11 12 12 6 0 3 1 2 3 3 0 2 2
12 12 10 10 10 8 8 7 8 8 7 7 7 6 7 6 6 7 7 6 6 6 6 6 6 6 5 5 6 6 5 4 5 6 5 6 5 6 5 5 5 5 3 3 4 4 5 5 7 9 10 12 10 10 7 5 5 4 3 1 3 2 2
12 11 10 11 9 9 8 7 7 8 8 8 8 7 7 8 7 6 7 6 6 6 6 6 6 6 6 5 5 5 5 5 6 5 4 5 6 5 5 5 4 5 3 4 4 4 6 7 7 7 6 5 9 11 7 7 6 3 3 1 1 2 1
10 10 9 10 9 10 10 9 10 9 8 8 8 8 7 7 7 6 6 7 6 6 6 6 6 6 6 6 5 6 5 5 7 6 4 5 5 6 6 6 4 5 4 5 5 5 5 7 7 5 5 6 3 7 9 7 6 3 2 3 1 1 1
11 11 11 11 10 10 10 11 10 9 9 8 8 9 8 8 8 8 6 7 7 6 7 6 6 6 6 6 6 6 6 6 7 7 5 3 4 5 7 7 5 5 4 5 6 5 5 4 5 6 5 5 4 5 7 6 6 6 2 2 4 1 2
11 10 10 11 11 10 10 10 9 8 9 9 9 8 8 8 8 8 7 7 7 7 7 7 5 6 6 6 5 6 7 7 8 6 6 5 4 6 6 7 5 4 4 7 5 5 6 5 5 5 4 5 5 5 6 5 7 6 1 1 1 2 1
10 9 11 11 11 10 10 10 10 10 9 9 9 9 9 7 7 8 8 8 8 7 7 7 6 6 7 7 6 5 6 7 7 7 6 7 5 5 6 7 5 4 4 7 6 6 5 5 6 6 4 6 6 5 3 5 4 6 6 1 1 1 1
11 11 12 10 11 11 10 10 10 11 9 8 8 9 9 8 8 8 8 8 8 7 7 7 6 7 7 8 8 6 6 7 8 8 7 7 6 5 6 6 6 5 4 7 6 5 5 6 5 6 5 4 6 4 3 6 8 4 7 3 1 1 0
12 12 12 10 12 11 10 10 10 9 9 9 8 6 7 8 8 8 8 8 8 7 7 7 7 6 8 8 8 8 7 6 7 7 8 7 7 6 7 7 6 6 6 7 6 5 4 5 5 6 6 4 5 6 5 5 6 7 3 5 1 2 1
12 12 12 10 12 11 11 10 9 11 11 10 9 10 7 6 8 8 8 9 8 8 7 7 8 7 6 6 8 8 7 7 7 7 7 7 5 7 7 7 7 6 7 8 5 5 5 6 5 6 6 4 5 5 5 5 5 5 7 6 4 1 1
13 13 12 11 11 11 10 10 9 8 10 11 9 9 9 7 7 8 8 8 8 8 8 8 8 8 8 7 6 7 7 7 7 6 6 6 6 6 7 7 7 7 7 8 6 5 5 6 5 6 6 5 4 5 6 5 5 6 7 5 5 3 2
12 12 11 11 10 10 10 9 9 8 8 10 11 9 7 8 6 8 8 8 8 8 8 8 7 8 8 8 8 8 7 6 6 6 5 6 5 5 6 7 7 6 7 7 8 7 6 6 6 6 5 6 4 7 6 5 6 6 6 5 2 2 2
12 12 10 10 10 10 9 8 9 9 9 9 9 9 9 9 7 7 7 7 7 7 8 7 7 7 8 8 7 7 7 7 7 6 6 5 5 5 6 6 6 6 7 7 8 7 7 7 6 6 4 5 5 7 7 5 6 6 5 4 2 3 1
10 10 11 11 10 10 10 10 10 10 10 9 7 8 8 8 8 8 7 7 7 7 7 7 7 8 8 7 7 8 7 7 7 7 6 5 5 5 5 5 5 5 5 6 7 7 6 7 8 7 4 5 6 7 6 5 5 5 4 5 3 1 2
11 11 11 12 11 11 11 11 10 10 9 9 9 8 9 8 7 9 8 7 7 6 6 5 7 11 9 8 7 6 6 6 7 7 7 6 5 4 5 5 5 7 8 8 8 8 8 6 3 6 9 7 7 7 7 7 6 5 6 5 5 4 4
12 12 12 12 11 12 11 10 10 10 10 10 10 9 9 9 8 8 9 8 8 6 6 6 11 12 12 12 8 7 7 6 6 6 6 7 7 5 4 3 3 5 6 6 6 7 7 7 7 7 9 7 6 10 10 7 6 6 6 5 4 3 4
12 12 12 12 12 12 11 11 11 10 10 9 8 8 9 9 8 7 7 7 7 7 6 8 13 12 12 13 10 8 7 7 6 6 6 6 6 6 5 4 3 3 4 5 6 5 5 6 7 8 8 7 6 4 5 8 9 6 6 6 5 5 4
12 12 11 12 12 12 12 11 10 10 10 9 9 10 9 8 8 7 7 8 7 6 6 9 13 13 12 13 12 9 7 7 7 7 6 7 7 6 6 5 5 4 3 7 5 5 6 5 5 7 7 7 6 6 6 4 3 7 7 7 6 5 6
12 12 11 10 10 12 13 13 11 10 9 9 9 9 8 8 7 8 8 8 7 6 6 9 13 13 13 13 13 10 7 8 7 7 8 7 7 7 7 7 6 5 4 6 7 9 8 6 6 5 4 4 5 5 4 5 5 7 8 6 7 6 6
13 12 13 12 11 10 11 11 12 10 10 11 11 10 10 9 8 8 7 7 7 7 6 11 13 14 13 13 13 9 7 6 6 6 6 7 7 7 7 6 7 8 7 4 3 5 7 7 6 4 4 4 5 5 4 4 4 5 5 4 5 6 5
13 13 13 13 13 11 10 11 12 10 9 7 7 8 7 7 9 9 8 8 7 7 6 12 13 14 14 14 13 7 7 7 7 7 6 6 6 6 7 8 7 5 6 5 6 8 7 6 6 6 5 5 5 4 5 6 5 4 5 6 6 6 5
13 13 13 13 14 14 13 10 9 10 10 9 10 9 9 9 8 9 9 8 9 7 7 11 14 15 14 15 11 6 7 6 7 7 7 7 7 7 7 7 8 6 4 5 7 9 7 7 6 6 6 5 5 4 6 5 5 7 8 7 7 6 5
14 13 13 14 13 12 12 11 11 10 11 10 10 10 9 8 8 9 10 10 10 9 8 10 14 14 15 17 13 9 8 8 7 7 7 6 6 6 7 11 8 9 9 8 10 12 10 8 6 6 6 5 5 6 6 4 3 2 2 5 6 7 7
14 14 13 13 13 13 12 12 11 10 9 9 11 10 9 9 8 7 9 10 11 10 8 9 13 14 16 16 12 8 8 8 8 7 7 7 5 5 5 9 13 10 9 10 12 11 12 10 7 7 7 6 6 7 7 4 5 4 3 3 4 3 4
13 14 14 12 8 8 9 11 11 11 9 8 9 9 9 9 10 9 8 8 9 10 9 8 11 15 14 15 14 10 7 8 9 9 7 7 7 6 6 6 9 13 14 13 12 12 12 13 8 7 5 6 6 9 6 4 5 5 4 5 3 1 3
13 12 13 14 14 13 11 11 12 12 11 9 9 8 10 9 9 9 8 8 8 8 8 9 10 15 15 16 15 13 9 10 9 9 8 8 8 9 8 6 6 10 13 13 12 12 12 13 11 7 7 7 9 4 4 5 6 3 3 2 1 1 2
14 12 10 10 12 11 10 10 12 12 11 11 12 11 9 8 8 6 5 6 7 9 8 11 9 13 16 17 16 16 10 11 11 10 8 8 7 7 8 8 7 10 14 14 14 13 13 14 15 9 8 11 9 5 5 4 3 3 3 1 1 2 2
12 10 12 12 12 11 10 10 9 9 11 11 12 11 10 8 8 6 5 5 5 6 6 7 12 12 15 17 17 16 17 13 12 9 10 8 8 9 8 8 9 11 13 14 13 14 14 15 11 9 12 12 9 8 3 3 3 4 3 2 1 3 4
12 11 12 11 10 11 10 9 9 9 10 11 10 10 8 8 8 8 8 6 5 5 5 5 8 13 12 16 16 17 16 14 14 10 9 9 8 8 8 8 8 12 13 14 15 15 14 12 10 13 13 11 9 6 4 4 4 4 3 2 3 4 5
Wind_Direction
181 164 150 143 133 134 142 146 143 142 137 138 141 147 147 146 145 143 144 146 146 150 149 155 156 157 153 163 182 179 157 183 174 174 171 168 177 198 72 74 59 104 130 64 152 163 152 157 209 301 313 327 55 35 1 5 80 90 75 57 63 55 45
154 147 142 139 138 140 139 143 139 134 130 134 139 142 144 144 147 147 146 144 144 151 144 140 142 153 163 164 171 171 174 191 206 173 158 180 196 177 137 68 94 112 86 64 108 75 139 133 128 180 171 45 63 24 358 33 68 67 68 67 72 60 51
145 137 141 145 146 147 143 143 138 136 135 131 138 138 136 142 141 144 148 150 150 147 141 150 141 145 156 172 179 176 183 185 197 178 182 184 193 168 174 148 131 120 98 104 98 103 51 82 164 181 184 156 125 340 350 81 77 69 64 58 65 53 42
154 149 146 150 147 149 147 145 146 140 139 140 139 132 135 138 139 142 144 144 142 142 137 147 161 164 174 164 151 141 171 185 183 170 157 166 169 165 168 172 166 169 173 172 180 187 149 143 99 123 112 126 139 120 5 16 67 64 67 62 70 57 38
159 163 163 156 160 156 151 148 139 133 137 136 138 132 134 141 135 130 132 135 138 137 146 142 137 143 138 131 140 146 145 148 145 152 156 154 165 169 182 190 186 186 174 174 179 170 166 168 154 147 136 126 81 77 148 26 63 67 53 61 55 61 31
165 166 166 163 164 162 158 148 149 151 145 147 158 149 157 153 143 135 142 143 139 142 135 132 132 133 138 138 139 126 139 159 175 164 165 173 168 174 185 187 173 179 193 191 154 160 123 132 136 127 90 89 130 140 154 105 113 25 56 55 58 45 32
169 167 168 166 168 165 163 161 162 159 164 166 163 167 161 155 150 151 146 140 135 133 133 128 126 129 129 131 131 138 141 138 137 142 137 136 132 127 133 150 175 180 189 175 161 147 145 138 146 142 136 73 91 130 2 2 353 116 59 37 25 39 19
169 171 170 167 164 163 168 161 159 156 161 164 161 148 153 149 144 139 139 136 137 134 130 126 115 108 112 104 104 98 94 123 122 128 130 138 137 143 147 152 146 151 172 174 167 167 158 159 150 149 138 131 106 44 63 8 355 73 132 69 355 15 6
168 166 164 164 166 165 164 163 159 161 158 146 144 148 159 151 148 143 133 128 129 130 129 126 126 125 130 126 116 126 130 122 139 125 123 122 131 141 138 135 121 135 142 163 173 161 167 157 149 151 148 147 146 164 151 135 348 154 194 135 33 14 343
170 172 169 165 161 156 154 154 151 152 143 147 149 155 151 150 146 144 137 132 132 133 128 128 130 135 136 131 134 130 129 123 127 121 119 127 132 132 123 134 129 126 120 112 104 132 135 132 153 157 159 158 160 145 158 163 200 171 169 189 131 19 334
175 173 166 161 153 147 144 137 137 142 159 154 149 154 151 148 144 138 134 130 133 133 135 132 136 139 130 116 126 131 128 131 112 91 110 129 133 122 114 102 113 105 101 97 105 120 136 144 148 159 156 148 152 152 159 156 183 199 123 48 160 130 347
175 170 166 157 153 154 153 151 156 159 148 149 149 152 154 148 143 138 137 133 136 134 131 135 139 135 127 123 128 129 126 127 120 120 137 134 135 123 121 112 112 107 123 110 103 104 114 140 147 140 136 134 137 146 145 135 129 210 163 136 133 248 227
175 171 166 158 159 159 157 157 157 156 159 155 152 154 155 153 147 143 141 140 140 137 136 136 137 131 127 131 138 133 139 132 126 133 133 104 121 126 124 122 130 128 131 106 94 90 101 95 121 132 136 130 118 141 134 130 131 147 230 164 155 189 253
177 171 164 162 159 159 157 158 158 149 154 156 152 153 154 154 150 146 143 147 146 146 143 142 141 135 127 129 135 138 134 132 130 131 126 113 112 133 129 124 131 120 129 100 90 89 85 96 94 95 106 114 121 153 134 114 123 118 71 313 205 178 272
173 170 164 163 161 158 156 155 150 159 164 157 153 151 151 151 149 144 146 147 148 147 147 143 142 138 134 138 136 142 137 135 135 134 132 134 146 139 134 126 121 104 88 104 102 88 99 101 107 106 110 127 133 151 161 113 110 130 144 255 130 291 261
174 171 166 167 164 159 155 151 162 165 160 140 147 151 148 150 149 145 145 148 147 150 149 145 148 145 144 149 148 143 145 146 148 148 150 156 152 141 127 126 130 122 112 96 91 96 99 100 94 101 103 98 115 122 118 124 129 111 140 149 228 349 309
173 173 171 170 166 159 151 156 164 151 138 154 147 128 146 146 147 149 149 151 153 149 146 145 147 149 150 152 150 150 151 155 155 158 159 157 150 147 138 130 144 132 118 109 110 105 88 93 95 96 95 79 102 100 101 97 115 128 155 132 246 187 237
174 174 172 169 166 155 156 159 155 153 153 147 148 142 144 147 150 153 156 158 155 154 153 148 144 144 148 154 152 152 155 155 161 163 161 154 152 146 147 145 146 135 130 119 118 112 111 102 93 95 90 80 84 85 78 99 108 112 127 132 144 288 314
175 174 170 167 162 157 156 157 152 153 151 141 142 147 146 155 159 158 157 160 156 151 149 152 151 151 149 147 146 149 151 155 157 154 150 150 145 150 147 140 142 145 142 137 144 131 121 115 104 97 101 89 91 86 94 85 90 105 108 122 129 127 8
174 171 169 162 156 153 155 152 140 128 132 149 150 147 147 154 161 158 159 155 154 152 150 149 149 150 150 149 150 148 150 151 148 143 143 140 134 133 135 138 145 154 150 147 146 150 138 124 117 117 118 118 109 107 102 101 108 109 118 120 75 72 121
171 169 163 157 155 151 145 139 136 142 151 152 154 156 156 159 152 154 155 156 151 149 149 148 148 151 152 154 152 155 155 152 145 136 126 121 125 127 140 146 152 160 157 157 152 153 149 138 121 117 119 117 120 113 112 115 110 114 126 122 106 157 22
167 162 159 154 148 144 143 149 154 151 156 158 153 155 150 145 147 149 150 151 149 152 154 158 158 156 153 155 156 155 157 153 149 136 124 115 116 129 140 153 157 156 163 163 161 154 158 149 143 136 156 145 134 121 116 113 120 124 127 127 123 28 138
164 160 157 155 149 146 148 152 152 154 158 154 152 150 149 151 156 155 152 148 152 156 160 159 166 161 157 155 157 154 150 149 145 138 129 123 119 133 151 158 168 170 166 157 148 145 143 146 143 154 156 163 147 130 138 136 142 150 143 148 166 158 147
162 163 162 153 149 150 153 155 158 157 156 153 152 151 150 156 160 159 158 156 158 163 162 164 162 162 160 154 150 154 155 146 139 137 140 142 147 149 144 141 184 169 152 137 130 139 143 138 132 137 151 166 173 156 147 147 161 162 160 164 171 175 180
163 164 159 155 152 154 156 156 157 156 153 153 150 146 156 164 156 153 150 151 158 163 165 166 161 164 161 158 157 153 150 149 146 146 144 147 144 145 146 132 105 98 117 133 131 127 126 125 135 145 154 166 179 200 181 158 159 171 173 162 177 206 175
164 160 158 157 155 151 154 156 154 153 161 158 148 152 162 151 154 151 151 155 161 164 164 165 165 166 164 161 155 148 148 149 147 149 149 149 150 144 138 126 107 90 111 128 119 123 128 137 142 146 154 168 187 192 206 214 185 169 162 158 178 197 199
164 159 151 150 155 158 158 161 161 159 152 150 155 150 151 152 147 155 158 160 159 163 167 171 169 169 167 164 157 151 152 154 151 150 153 154 155 152 146 142 137 123 139 161 169 155 151 151 141 146 163 178 193 203 218 207 195 162 170 169 168 190 219
162 158 156 154 157 161 164 157 156 156 157 162 159 159 157 155 158 155 155 154 158 168 186 172 173 172 169 165 161 150 146 144 140 146 152 157 159 154 148 142 152 168 181 155 170 157 152 156 143 152 187 210 214 224 222 225 217 191 191 176 183 203 197
161 159 159 158 158 161 165 163 157 153 153 158 151 138 143 149 155 159 159 160 163 178 183 178 176 175 170 165 157 149 147 150 147 147 152 155 153 153 159 160 148 156 170 171 182 184 173 152 140 156 198 219 238 248 247 234 232 226 218 199 197 202 207
161 161 159 162 165 163 161 161 157 150 151 160 151 152 159 165 163 159 163 169 174 179 184 187 183 176 168 159 155 149 151 141 143 155 167 171 168 166 168 162 150 145 141 193 200 198 191 164 167 180 190 204 225 235 248 248 225 226 230 233 239 247 258
160 161 161 164 168 166 161 157 157 156 157 160 156 159 161 159 161 167 170 177 183 180 190 184 184 177 165 167 165 159 159 150 158 163 169 175 166 173 168 159 161 161 191 204 196 194 192 180 187 191 192 200 213 234 253 252 286 263 217 234 249 254 257
161 161 166 168 165 164 165 163 155 157 161 162 155 154 160 161 164 173 183 184 182 180 183 180 182 178 172 170 165 157 157 158 157 171 170 170 157 152 197 185 186 188 192 200 197 193 191 188 195 193 195 194 216 227 234 201 202 207 217 226 250 227 268
162 164 165 161 151 149 152 147 153 155 156 156 154 158 161 164 168 181 181 180 185 187 179 174 178 176 175 176 170 157 156 152 172 177 179 168 167 184 198 219 208 202 200 200 199 195 196 195 194 197 183 200 214 231 218 190 216 205 203 202 238 310 277
160 165 166 159 160 158 163 164 157 157 153 153 152 158 164 170 179 182 184 184 177 182 181 172 177 177 175 179 175 161 169 174 176 172 178 182 182 185 201 208 219 207 204 204 201 200 200 200 203 194 198 209 214 216 125 195 214 198 184 177 300 289 289
161 158 156 160 156 158 161 161 161 157 151 153 157 164 167 167 171 171 171 173 187 186 179 172 159 177 178 181 183 172 164 188 183 176 174 190 188 196 207 206 212 208 202 203 202 201 203 203 206 204 210 218 219 165 187 201 165 149 172 161 267 276 275
158 159 160 163 159 152 149 149 154 153 150 154 157 159 166 165 162 161 161 177 189 186 177 168 164 175 187 184 188 185 185 186 181 172 176 182 192 204 208 207 212 203 197 200 201 201 204 207 204 214 218 218 213 198 194 156 152 162 167 184 198 261 266
157 156 157 154 150 145 145 149 152 157 156 155 156 158 165 165 164 162 172 182 191 183 177 174 180 178 182 191 194 196 195 182 171 186 183 191 195 202 201 206 207 198 198 201 203 203 204 199 206 215 220 216 199 182 177 154 165 179 169 182 221 251 257